041205 A32  0.2+  0.4+    041221 A46  0.0   0.3+    050213 D88  0.5+  0.7-  

041205 A32  0.2+  0.3+    041221 A46  0.4-  0.1+    050216 132  1.3+  0.3-  

041205 A32  0.1+  0.2+    041221 A46  0.2+  0.3+    050216 132  0.3-  0.1-  

041206 D83  0.6-  0.8-    041221 A46  0.2-  0.1+    050216 132  0.9+  0.2+  

041206 D83  0.8-  0.7-    041221 A46  0.2+  0.1+    050218 939  1.7+  0.0   

041206 D83  0.1-  0.7-    041223 704  0.3-  0.7-    050218 939  1.2+  0.2+  

041206 D83  0.8-  0.6-    041223 704  0.0   0.8-    050218 939  0.9+  0.4+  

041206 352  0.1-  0.3-    041223 704  0.2-  0.9-    050226 A32  1.9+  1.0+  

041206 352  0.1+  0.1-    041225 349  0.1+  0.2+    050227 360  0.1+  0.1+  

041206 352  0.2-  0.0     041225 349  0.2-  0.2-    050227 360  0.2+  0.1+  

041206 372  0.4-  0.8+    041225 349  0.1-  0.2-    050228 704 (2.7+  0.8+) 

041206 372  0.1+  0.5+    041230 213  0.3-  0.1+    050228 G92  0.8+  0.7+  

041206 379  0.2+  0.0     041230 213  0.3-  0.0     050228 704 (3.2+  1.0+) 

041206 379  0.0   0.2+    041230 213  0.3-  0.2+    050228 704  1.6+  0.3+  

041206 379  0.2-  0.2-    2005/                     050228 704  0.7+  0.0   

041206 379  0.1+  0.3+    050101 J78  0.3-  0.1-    050228 G92  0.7+  0.5+  

041207 379  0.0   0.2+    050101 J78  0.4-  0.0     050228 704  1.8+  0.7+  

041207 379  0.3+  0.3+    050101 J78  0.6-  0.2+    050228 G92  0.1+  0.5+  

041207 379  0.4+  0.2-    050101 213  0.1-  0.0     050301 213  0.9+  1.2+  

041207 379  0.2+  0.2+    050101 213  0.1-  0.2+    050301 213  0.1+  0.3-  

041207 379  0.3+  0.2-    050101 213  0.1+  0.0     050301 213  1.1+  0.2+  

041207 A46  0.1+  0.1-    050101 939  0.7-  0.0     050304 132  0.7+  0.3-  

041207 A46  0.1+  0.2-    050101 939  0.6-  0.1+    050304 132  1.7+  0.8+  

041207 A46  0.1+  0.1-    050101 939  0.7-  0.1+    050304 132  0.8+  0.2-  

041207 A46  0.2+  0.2-    050102 D88  0.0   0.1+    050305 A01 (2.7+  0.8+) 

041207 A46  0.1+  0.2-    050102 D88  0.2+  0.4-    050305 A01  1.5+  1.1+  

041207 A46  0.1+  0.2-    050102 D88  0.4-  0.3-    050305 A01  1.8+  0.7+  

041207 235  1.1-  0.7+    050104 372  1.1-  0.1+    050316 213  1.1+  0.2+  

041208 246  0.2+  0.0     050104 213  0.6-  0.0     050316 213  0.9+  0.4+  

041208 246  0.3+  0.0     050104 213  0.5-  0.1-    050316 213  0.6+  0.4+  

041208 246  0.5+  0.2-    050104 213  0.5-  0.0     050319 118  1.5+  0.2-  

041208 246  0.2+  0.1+    050104 215  0.6-  0.0     050319 118  0.8+  1.0+  

041208 246  0.2+  0.0     050104 215  0.8-  0.0     050319 118  1.0+  1.4+  

041208 246  0.4+  0.1+    050104 215  0.7-  0.0     050711 704  0.6+  0.4+  

041208 349  0.0   0.0     050105 D88  0.3-  0.5+    050711 704  0.1+  0.4+  

041208 349  0.0   0.0     050105 D88  0.4-  0.2-    050711 704  0.1+  1.4-  

041208 349  0.1+  0.1-    050105 D88  0.0   0.2-    050711 704  1.3-  0.9+  

041208 349  0.0   0.0     050105 A30  0.1-  0.1+    050711 704  1.3-  1.7+  

041208 379  0.2+  0.1-    050105 A30  0.0   0.1+    050712 704  0.4-  0.6-  

041208 379  0.3-  0.4+    050105 A30  0.1-  0.1-    050712 704  0.2-  0.7+  

041208 379  0.1-  0.1+    050105 A30  0.1-  0.1+    050712 704  0.2-  0.0   

041208 379  0.4+  0.1-    050105 A30  0.2-  0.2-    050712 704  1.9-  0.6+  

041208 379  0.3+  0.1+    050105 A30  0.1-  0.1-    050810 704  0.1-  0.9+  

041208 A18  0.1-  0.2-    050106 A54 (3.7+  1.2-)   050810 704  1.4-  0.5+  

041209 D74  0.7+  0.4+    050106 A54 (5.1+  0.6+)   050810 704  0.2-  0.2-  

041209 D74  0.2+  0.8+    050107 A01  1.4-  0.2+    050810 704  0.6+  0.0   

041209 D74  0.3+  0.7+    050107 A01  0.4-  0.0     050810 704  0.6-  0.4-  

041209 300  1.1-  0.0     050108 A06  0.4+  0.4+    050827 704  0.7-  0.0   

041209 300  0.5-  0.5+    050108 A06  0.8-  0.3-    050827 704  1.7+  1.3-  

041209 300  0.1-  1.2+    050108 A06  1.3+  0.4-    050827 704  0.3-  0.6-  

041210 372  0.5-  0.8+    050108 204  0.5-  0.3+    050827 704  0.1-  1.3+  

041210 379  0.6+  0.6+    050108 204  0.5-  0.2+    050829 215  0.8-  0.4-  

041210 379  0.1-  0.5+    050108 204  0.6-  0.4+    050829 215  1.4-  0.1+  

041210 379  0.2+  0.2+    050108 900  0.2-  0.2-    050925 215  0.8-  0.9-  

041210 379  0.1-  0.2-    050108 900  1.0-  0.7-    050926 704  0.1-  0.2+  

041210 213  0.4-  0.5+    050108 349  0.2+  0.3-    050926 704  0.4+  0.4-  

041210 213  0.5-  0.4+    050108 349  0.2+  0.2-    050926 704  0.2-  1.1-  

041210 213  0.5-  0.5+    050108 349  0.5+  0.1-    050926 704  1.0+  0.4-  

041210 213  0.5-  0.5+    050108 213  0.3-  0.5+    050926 704  0.5+  0.2-  

041210 213  0.5-  0.5+    050108 213  0.3-  0.1+    051020 673  0.9-  0.8-  

041210 561  0.0   0.3+    050108 213  0.1+  0.2+    051020 673  0.0   0.3-  

041210 561  1.7+  1.1-    050108 J78  0.2-  0.1+    051020 673  0.4-  0.8-  

041210 A32  0.3-  0.2+    050108 J78  0.4-  0.3-    051020 673  0.5-  1.0-  

041210 561 (3.0-  2.3+)   050108 J78  0.1-  0.1+    051020 673  1.6-  1.0-  

041210 A32  0.1-  0.2+    050110 379  0.4+  0.5-    051021 673  0.1-  0.7-  

041210 A32  0.3-  0.4+    050110 379  0.3-  0.3+    051021 673  0.1-  1.1-  

041210 A32  0.2-  0.2+    050110 379  0.5-  0.6+    051021 673  0.3-  1.0-  

041211 J78  0.6-  0.4+    050110 201 (1.1+  2.0-)   051021 673  1.0-  0.5-  

041211 J78  0.5-  1.0+    050110 201 (3.5+  0.7+)   051021 673  1.1-  0.7-  

041211 J78  0.6-  0.5+    050110 201  0.8+  0.9-                            

041211 A01  0.2+  0.1-    050110 138  0.3+  0.5-                            



NAKANO

         **** Don't distribute anyone except personal use only ****

                (C) Copyright 2005 OAA/ComputingSection

write mail from CFAD0::NAKANO on 2005-12-08 01:41:52(JST).

 



    C/2004 U1 - B (LINEAR)                                                

Epoch 2004 Dec. 21.0 TT = JDT 2453360.5  

T 2004 Dec. 8.75239 TT                                  Nakano

q   2.6593894            (2000.0)            P               Q

z  +0.0002852      Peri.   20.12633     -0.15310850     +0.69653967

 +/-0.0000018      Node   112.54645     +0.77054213     -0.35998614

e   0.9992417      Incl.  130.62355     +0.61872660     +0.62067904

From 523 observations 2004 Oct. 16-2005 Oct. 21, mean residual 0".53.

   (1/a)org.= +0.000591, (1/a)fut.= +0.000920 (+/-0.000002), Q= 8.

Residuals in seconds of arc 

2004/                     041211 A01  0.1-  0.1-    050110 138  0.5+  0.8-  

041016 699  1.3-  0.6-    041211 A01  0.1-  0.1-    050110 138  0.1+  0.6-  

041016 699  0.3-  0.2+    041211 360  0.1+  0.1+    050110 240  0.1+  0.1-  

041016 699  0.8-  0.8-    041211 360  0.1+  0.0     050110 240  0.1+  0.0   

041016 699  0.7+  0.9-    041211 D70  0.3-  0.7+    050110 240  0.3+  0.0   

041019 704  0.2+  0.6+    041211 D70  0.0   0.5+    050110 240  0.1+  0.1+  

041019 704  0.8+  0.7-    041211 D70  0.3-  0.5+    050110 240  0.3-  0.1+  

041019 704  1.2+  1.6+    041211 349  0.1-  0.4+    050111 D88  0.5+  0.3-  

041020 113  1.3-  0.2-    041211 349  0.1+  0.3+    050111 D88  0.3-  0.4-  

041020 113  0.9-  0.1-    041211 349  0.0   0.2+    050111 D88  0.3-  1.0-  

041020 113  0.9-  0.2+    041211 349  0.1-  0.2+    050111 379  0.5-  0.4+  

041020 113  0.7-  0.2+    041211 130  0.1+  0.7+    050111 379  0.4-  0.3+  

041020 854  0.4-  1.4-    041211 130  0.1+  0.7+    050111 379  0.5-  0.6-  

041020 854  0.8-  0.5-    041211 130  0.3+  0.4+    050111 379  0.9-  0.4-  

041020 854  0.1-  0.5-    041211 130  1.1+  0.0     050113 379  0.6-  0.1-  

041021 J95  0.6-  0.8-    041212 H41  0.2+  0.2-    050113 379  0.5-  0.3+  

041021 J95  0.1-  0.2-    041212 H41  0.2+  0.3-    050115 A46  0.3-  0.0   

041021 J95  1.4-  0.4-    041212 H41  0.2+  0.3-    050115 A46  0.2-  0.1-  

041021 J95  1.0+  0.3-    041212 H41  0.3+  0.3-    050115 A46  0.3-  0.2-  

041021 J95  0.1+  0.6-    041212 H41  0.1+  0.3-    050115 A46  0.2-  0.2-  

041021 704  0.2+  0.0     041213 945  0.8-  0.8+    050115 A46  0.6-  0.3-  

041021 704  1.1-  0.5+    041213 945  0.8-  0.8+    050115 A46  0.7-  0.3-  

041021 704  0.4+  0.2+    041213 945  0.7-  0.9+    050116 704  1.5+  0.9-  

041021 704  0.6-  0.3-    041213 945  0.8-  0.8+    050116 704 (3.7+  2.3-) 

041021 704  0.5-  0.3+    041213 945  0.8-  0.9+    050116 704 (2.9+  1.8-) 

041021 704  1.3+  0.1+    041213 379  0.1-  0.2-    050116 704 (2.2+  3.1-) 

041021 704  0.4-  0.7+    041213 379  0.4+  0.2+    050116 704 (4.6+  2.7-) 

041021 704  0.5-  0.1+    041213 379  0.8+  0.6-    050116 379  0.2+  0.5-  

041021 D74  0.3+  0.9+    041213 213  0.4+  0.3-    050116 379  0.1+  0.2+  

041021 D74  0.0   0.8-    041213 213  0.3+  0.1+    050116 379  0.4-  0.0   

041021 D74  0.2-  0.2+    041213 213  0.3+  0.0     050116 379  0.1-  0.3+  

041021 D74  0.1+  0.1+    041215 A39  0.1+  0.0     050116 048  1.8+  0.5+  

041022 349  0.1+  0.7-    041215 A39  0.0   0.5+    050117 945  0.2-  0.0   

041022 349  0.7+  0.5+    041215 A39  0.2+  0.1+    050117 945  0.4+  0.0   

041022 349  0.2-  0.5+    041215 A39  0.0   0.1+    050117 945  0.7-  0.1+  

041023 170  0.2+  0.5-    041215 379  0.1+  0.2+    050117 945  0.4-  0.1+  

041023 170  0.2+  0.0     041215 379  0.2+  0.3+    050117 704  1.3+  1.2-  

041023 170  0.1+  0.1-    041215 379  0.1+  0.3+    050117 704  1.9+  1.5-  

041023 170  0.6+  0.1-    041215 379  0.4+  0.3+    050117 704  1.0+  1.0-  

041023 360  0.0   0.4-    041215 213  0.3+  0.3+    050117 704 (2.4+  2.0-) 

041023 360  0.3-  0.1+    041215 213  0.2+  0.2+    050117 704 (1.9+  2.5-) 

041023 360  0.3+  0.2-    041215 213  0.4+  0.2+    050117 379  0.7-  0.2+  

041024 704  0.5+  0.1-    041216 240  0.1-  0.2+    050117 379  0.3+  1.0-  

041024 704  0.8-  0.2-    041216 240  0.2-  0.1+    050117 213  0.6+  0.0   

041024 704  0.2-  0.2+    041216 240  0.2-  0.1+    050117 213  1.2+  0.0   

041024 704  0.1+  0.0     041216 240  0.2-  0.1+    050117 213  0.7-  0.0   

